Theta_e
318 320 321 322 324 325 325 326 326 327 328 328 328 328 327 327 327 326 326 326 327 326 324 324 324 323 321 320 318 318 318 317 316 315 314 312 311 311 310 309 309 308 304 299 295 293 292 291 290 290 289 289 289 289 289 289 289 288 289 289 289 290 290 291 291 291 290 289 289 288 288 287 287 287 287 287 287 287 287 286 286 286 286 286 286
319 320 321 322 323 323 324 325 326 326 327 327 326 326 326 326 325 325 326 325 325 324 324 323 323 321 319 318 317 317 318 317 315 313 310 309 309 308 308 306 304 301 297 293 290 290 290 290 290 289 289 289 289 288 288 288 288 288 288 288 288 288 289 289 289 289 289 288 288 287 286 286 286 286 286 286 286 286 286 285 285 285 286 286 285
319 321 322 323 323 323 324 325 325 326 325 325 326 325 325 325 325 325 325 324 322 322 322 321 320 319 318 317 317 317 316 314 312 309 307 308 308 307 306 302 297 294 291 290 290 290 290 289 289 289 288 288 288 288 288 287 287 287 287 287 287 287 287 287 287 287 287 287 287 286 286 285 286 286 286 286 286 285 285 285 285 285 285 285 285
319 321 322 323 324 324 325 325 325 325 324 324 324 324 324 323 323 323 323 321 320 320 319 318 318 318 317 316 315 314 313 311 309 308 307 307 305 302 298 294 292 290 290 290 290 289 289 289 288 288 288 288 287 287 287 287 287 287 286 286 286 286 286 285 285 285 285 286 286 285 285 285 285 285 285 285 285 284 284 284 284 284 284 284 284
319 321 321 322 323 324 323 324 323 323 323 323 323 322 322 321 321 321 321 319 319 318 317 316 316 315 315 314 313 311 309 308 307 306 303 300 297 293 291 290 290 290 290 289 289 288 288 288 288 287 287 287 287 287 287 287 286 286 286 286 285 285 284 284 284 284 284 285 284 284 285 285 285 285 284 284 284 284 284 284 284 284 284 284 285
319 320 321 321 321 322 322 322 322 322 322 322 322 321 320 320 320 319 318 318 317 316 315 314 313 313 312 311 310 308 306 304 303 299 295 292 291 290 290 290 290 290 289 288 288 288 288 287 287 287 287 287 287 286 286 286 286 285 285 285 284 284 283 283 283 283 284 284 284 284 284 284 284 284 284 284 284 284 284 284 284 284 284 285 285
319 320 320 320 320 320 321 321 321 321 320 320 320 319 319 318 318 317 317 316 315 314 313 312 311 311 309 307 305 304 301 299 295 292 290 290 290 290 290 290 289 289 288 288 288 287 287 287 287 286 287 286 286 286 286 285 285 285 284 284 283 283 283 283 283 283 283 284 284 284 284 283 283 283 284 283 284 284 284 284 284 284 285 285 285
318 319 319 319 319 319 320 320 320 320 319 319 318 317 316 316 315 315 314 314 314 312 311 310 308 306 304 302 301 299 295 292 290 290 290 290 290 290 289 289 289 288 288 287 287 287 287 286 286 286 286 286 286 285 285 285 284 284 283 283 283 283 283 282 283 283 283 284 284 283 283 283 283 283 283 283 283 284 284 284 284 285 285 285 285
318 318 318 318 318 318 318 318 318 318 317 317 316 315 314 313 313 312 312 312 312 310 309 307 304 302 300 298 295 292 290 289 289 290 290 290 290 289 289 288 288 287 287 287 286 286 286 286 286 286 285 285 285 285 284 284 283 283 283 283 283 283 283 283 283 283 283 283 283 283 283 283 283 283 283 284 284 284 284 284 285 285 286 286 285
317 316 316 317 316 316 316 316 316 316 315 314 314 313 312 311 311 311 310 309 308 307 305 303 301 299 295 292 290 289 289 289 289 289 290 289 289 289 288 287 287 287 287 286 286 286 286 285 285 285 285 285 285 284 283 283 283 283 283 283 283 283 283 283 283 283 283 283 283 283 283 283 283 283 284 284 284 284 284 284 285 285 286 285 285
315 314 314 315 315 315 314 314 313 313 313 312 312 311 311 310 310 309 307 305 304 303 301 299 296 294 291 289 289 289 289 289 289 289 289 289 288 288 287 287 286 286 286 286 286 285 285 285 285 285 285 285 284 283 282 282 283 283 283 283 283 283 283 283 283 283 283 283 283 283 283 283 283 283 284 284 284 284 284 285 285 285 285 285 285
312 312 312 312 312 312 312 312 311 311 311 311 310 310 310 309 307 305 303 302 300 298 296 294 291 290 289 289 289 289 289 288 288 288 288 287 287 287 287 286 286 286 285 285 285 285 285 285 285 285 284 283 283 282 282 283 283 283 283 283 283 283 283 283 283 283 283 283 283 283 283 283 283 284 284 284 284 284 284 284 285 285 285 284 284
310 310 310 310 310 310 310 311 310 308 309 309 309 309 308 306 304 301 300 298 296 294 292 290 289 289 289 289 289 288 288 288 287 288 287 287 287 286 286 286 286 285 285 285 285 285 285 285 284 284 283 282 282 282 283 283 283 283 283 282 282 282 283 282 282 282 282 283 283 283 283 283 283 283 283 283 283 283 284 284 284 284 284 283 283
310 310 309 308 308 309 309 309 308 307 307 307 307 306 305 302 300 298 297 295 293 291 290 289 289 289 289 289 288 288 288 287 287 287 287 286 286 286 286 285 285 285 285 285 285 285 285 285 284 284 283 282 282 282 283 283 282 282 282 282 282 281 281 281 281 282 282 282 282 282 282 282 282 282 282 283 283 283 283 283 283 282 282 282 282
309 309 309 308 307 308 307 307 307 306 305 305 304 302 300 298 296 295 293 292 290 290 289 289 289 288 288 288 288 287 287 287 287 286 286 286 286 286 285 285 285 285 285 285 285 285 284 284 284 283 282 282 282 283 283 283 282 281 281 281 280 280 280 280 280 280 280 280 281 281 281 281 281 282 282 282 282 282 282 282 281 281 281 281 281
308 308 308 307 307 307 307 306 306 305 303 302 300 298 296 295 293 292 291 289 289 289 289 289 288 288 288 288 287 287 286 286 286 286 286 285 285 285 285 285 285 285 285 284 284 284 284 283 283 282 281 282 282 283 283 282 281 280 280 280 279 279 279 279 279 279 279 279 279 279 279 280 281 281 281 281 281 281 280 280 280 280 281 281 281
306 306 306 306 306 305 306 305 304 302 300 298 296 294 293 292 290 290 289 288 288 288 288 288 288 288 287 287 287 287 285 285 286 285 285 285 285 285 285 285 285 284 284 284 283 283 283 283 282 281 280 281 282 282 282 281 280 280 279 279 278 278 278 278 277 277 278 278 278 278 279 280 280 280 280 280 280 279 279 279 279 279 280 281 281
304 305 305 305 305 304 304 304 302 300 297 295 293 292 290 290 289 289 289 288 288 288 288 287 287 287 287 286 287 286 285 285 285 285 285 285 285 285 285 284 284 284 283 283 283 282 282 282 281 280 280 281 281 281 280 280 280 279 278 277 277 277 277 277 276 277 277 278 278 277 278 278 279 278 278 278 278 278 278 278 278 278 279 280 280
302 304 304 303 303 302 302 301 300 298 295 293 292 290 289 288 288 288 288 288 288 287 287 287 286 286 286 286 286 286 285 285 284 285 285 285 284 285 284 284 284 283 283 282 282 282 282 281 281 280 280 280 280 280 279 279 279 278 277 276 276 276 276 276 276 277 277 277 277 277 277 277 277 276 276 276 277 277 277 276 277 278 278 279 279
301 301 301 301 301 300 299 299 298 296 294 292 290 289 288 288 288 288 288 288 287 287 286 286 286 285 285 285 285 285 285 284 284 284 284 284 284 284 284 284 284 283 283 282 282 281 281 281 281 280 280 280 280 279 279 278 279 278 276 275 275 276 275 276 277 277 277 277 276 276 276 276 275 274 275 275 275 275 275 276 276 277 277 277 277
298 299 298 298 298 297 296 296 295 293 292 290 289 288 288 288 288 288 288 287 286 285 285 285 285 285 285 285 284 284 284 284 284 284 284 284 284 284 284 283 283 283 283 282 282 282 281 281 281 280 280 280 280 279 279 278 278 278 276 275 275 275 276 276 277 277 277 276 276 275 275 274 273 273 273 274 273 273 274 275 275 276 276 276 276
297 296 296 295 295 294 293 293 292 291 290 289 288 288 287 288 288 287 287 286 285 284 284 284 284 284 284 284 283 283 283 283 283 283 283 283 283 283 283 283 283 283 283 282 282 282 281 281 281 281 280 280 279 279 278 278 278 277 276 276 276 276 276 277 277 277 277 276 274 273 273 272 272 272 272 273 273 273 273 273 274 275 275 275 276
294 294 294 293 292 292 292 291 290 289 288 288 288 287 287 287 287 286 286 285 284 284 283 283 284 283 282 282 282 282 282 282 283 283 283 283 283 282 282 282 282 282 282 282 282 282 281 281 281 280 280 280 279 278 278 278 278 277 276 276 276 276 277 277 277 277 276 274 272 271 271 271 271 271 271 272 274 273 272 272 273 273 274 275 275
293 292 292 292 291 291 290 290 289 288 288 287 287 287 287 286 286 285 285 285 284 283 283 283 282 282 281 281 281 281 281 281 282 282 282 282 282 282 282 282 281 281 281 282 281 281 281 281 280 279 279 279 278 278 277 277 277 276 276 276 276 276 277 277 277 276 275 273 271 270 270 270 270 270 270 272 273 274 273 272 272 272 273 274 275
291 291 291 291 290 290 289 288 288 287 287 287 287 287 286 285 285 284 284 284 284 283 282 282 282 281 281 280 280 280 280 280 281 281 281 282 282 282 281 281 281 281 281 281 281 280 280 280 279 279 278 278 278 277 277 277 277 276 276 276 276 276 276 276 275 274 273 271 269 269 269 269 269 269 270 271 273 274 273 273 273 273 273 273 274
291 290 290 290 289 288 287 287 286 286 286 286 287 287 286 286 285 284 284 284 283 283 282 281 281 281 281 280 280 279 279 280 280 281 281 281 281 281 281 281 281 280 281 280 280 280 279 279 278 278 278 277 277 277 277 277 276 276 276 275 276 276 275 275 273 272 270 269 268 268 268 268 269 270 271 272 273 272 271 271 272 273 273 273 274
290 289 289 288 287 287 286 286 285 285 285 285 285 286 286 285 285 284 284 283 282 282 281 281 280 281 281 280 280 280 280 280 280 280 281 282 281 281 281 281 280 280 280 280 279 279 278 278 277 277 277 277 277 277 276 276 276 275 275 275 275 274 274 273 272 270 270 269 268 268 268 269 270 271 271 271 271 271 270 269 270 271 271 272 274
289 288 287 287 286 285 285 285 285 285 285 285 285 285 284 285 285 285 285 284 284 283 282 282 283 283 282 282 281 280 279 280 281 281 282 282 281 281 281 280 280 280 279 279 279 278 277 277 277 277 276 276 276 276 276 275 275 274 274 274 273 273 272 272 271 271 271 270 269 268 268 269 270 270 269 268 268 269 269 268 269 269 270 272 274
287 286 285 285 285 284 284 284 285 285 284 284 284 284 284 284 284 285 285 285 285 285 285 285 285 285 284 284 283 281 281 282 282 282 282 282 281 281 281 280 280 279 279 278 278 277 277 276 276 276 276 275 275 275 275 274 273 273 272 272 272 271 271 271 271 271 270 269 268 267 267 267 268 268 267 267 267 267 267 267 268 269 270 272 273
284 284 283 283 283 283 283 283 283 284 284 283 283 283 283 283 283 284 284 284 284 285 285 285 286 285 285 285 284 284 284 284 283 282 282 281 281 280 280 280 279 278 278 278 277 276 276 276 276 275 275 275 274 274 273 273 272 272 272 271 271 270 270 270 269 269 269 268 267 266 266 266 266 266 265 265 265 266 266 266 267 268 269 271 273
283 282 282 282 282 282 282 283 283 283 283 282 282 282 281 281 282 282 283 283 284 284 284 284 285 284 284 284 284 283 283 282 282 281 281 281 280 280 280 279 278 278 278 277 276 276 275 275 275 275 274 274 273 273 272 272 271 271 271 271 270 269 269 269 268 268 268 267 266 265 265 264 264 264 264 264 264 265 265 265 266 267 268 270 272
283 282 281 282 282 282 282 282 282 282 281 281 281 281 280 280 280 280 281 282 282 283 283 283 283 283 284 284 283 282 281 281 280 280 281 280 280 279 279 278 277 277 277 276 275 275 275 275 274 274 273 273 272 272 271 271 271 271 270 270 269 268 268 267 267 267 267 266 265 265 265 264 263 263 263 263 263 263 264 264 265 266 267 269 271
284 282 282 281 281 281 281 281 281 281 281 280 280 280 280 280 280 280 280 280 281 281 282 282 282 283 282 282 282 281 281 280 280 280 280 280 279 278 278 277 276 276 276 275 275 275 274 274 274 273 273 272 272 271 271 271 270 270 269 269 268 268 267 267 266 266 266 265 264 264 264 264 263 263 263 263 263 262 263 263 264 265 266 268 270
284 283 282 281 281 280 280 281 280 280 280 280 280 280 281 281 281 280 280 279 279 280 280 280 281 281 281 281 280 280 279 279 278 279 280 279 278 277 277 276 275 275 275 275 274 274 274 274 273 273 272 272 271 271 271 270 270 269 269 268 268 267 267 267 267 266 266 265 264 264 264 263 263 262 262 262 262 262 262 262 263 264 265 267 269
282 282 281 281 281 280 280 280 280 280 280 280 280 280 281 281 281 281 281 280 280 279 279 279 279 279 279 279 279 278 278 277 277 278 278 278 277 276 275 275 274 274 274 274 274 273 273 273 273 272 272 271 271 271 270 269 269 269 268 268 268 267 267 267 267 266 266 265 264 264 263 263 262 262 261 261 261 261 261 262 262 263 264 266 268
281 280 280 280 280 280 280 279 279 280 280 280 280 280 281 281 281 281 281 280 280 280 279 279 278 278 278 278 278 277 277 276 275 275 276 276 275 274 274 275 274 274 274 274 273 273 273 273 272 272 271 271 271 270 269 269 268 268 268 267 267 267 267 267 267 266 265 265 264 264 263 263 262 261 261 261 261 261 261 261 262 262 264 265 267
280 280 280 280 280 279 279 279 279 279 279 279 279 280 280 280 280 280 280 280 280 279 279 278 278 278 277 277 276 276 276 275 275 274 274 274 274 274 274 275 274 274 274 273 273 272 272 272 272 271 271 271 270 269 269 268 268 268 267 267 267 267 267 266 266 266 265 265 265 264 263 262 262 261 260 260 260 261 261 261 261 261 263 264 266
280 280 279 279 279 279 278 278 278 278 278 278 279 279 279 279 279 279 279 279 279 278 278 278 277 277 277 276 275 275 275 275 274 273 273 273 273 273 273 274 273 273 273 273 272 272 272 272 272 271 271 270 270 269 269 268 268 267 267 267 267 267 266 266 266 266 265 265 265 264 263 262 262 261 260 260 260 260 260 260 260 261 262 263 265
279 279 279 278 278 278 278 277 277 277 277 278 278 278 278 278 278 278 278 278 277 277 277 277 276 276 276 275 274 274 274 274 274 273 273 272 272 272 273 273 273 272 272 272 271 272 272 272 271 271 270 270 269 269 268 268 268 267 267 267 267 267 267 266 266 266 265 265 264 264 263 263 262 262 261 261 260 260 260 260 260 260 261 262 264
278 278 278 277 277 277 277 277 277 277 277 277 277 277 277 277 277 277 277 277 276 276 276 275 275 276 275 275 275 274 274 274 273 273 272 272 272 273 273 273 273 272 271 271 271 271 272 271 271 271 270 270 269 269 268 268 268 267 267 267 267 267 267 267 266 266 265 265 264 264 263 263 263 262 262 261 260 260 259 259 259 260 260 262 263
277 277 277 276 276 276 276 276 276 276 276 276 276 276 276 276 276 276 276 276 275 275 275 275 276 276 276 275 275 275 274 274 273 273 273 273 274 274 274 273 273 272 271 271 271 271 271 271 270 270 270 269 269 268 268 268 268 268 268 268 267 268 268 267 266 266 265 265 264 264 264 263 263 262 262 261 260 260 259 259 259 259 260 261 262
276 276 276 275 275 275 275 275 276 275 275 275 275 275 275 275 275 275 275 275 275 275 274 275 275 275 275 275 274 274 274 273 273 273 273 274 274 275 274 273 272 272 271 271 271 271 271 270 270 270 270 269 269 268 268 268 268 268 268 268 268 268 268 267 267 266 265 265 265 264 264 264 263 262 262 261 260 259 259 259 259 259 259 260 261
275 275 275 275 275 275 275 275 274 274 274 275 275 275 275 274 274 274 274 274 274 275 274 274 274 274 273 273 273 273 273 273 273 273 274 274 275 274 274 273 272 271 270 270 270 270 270 270 270 270 270 269 269 268 268 268 268 268 268 268 268 268 268 268 267 266 265 265 265 265 265 264 264 263 262 261 260 259 259 259 259 259 259 259 260
275 274 274 274 274 274 274 274 274 274 274 274 274 274 274 274 274 274 274 274 274 274 274 274 273 273 272 272 272 272 272 272 272 273 274 274 274 274 273 273 272 270 270 270 270 270 270 270 270 270 269 269 269 269 268 268 268 268 268 268 268 268 268 267 267 266 265 265 265 265 265 265 264 263 262 261 260 259 259 259 259 258 258 259 259
274 273 273 273 273 273 273 273 273 273 273 273 273 273 273 273 273 273 273 273 274 273 273 273 272 271 271 271 271 271 271 271 271 272 273 274 274 273 272 272 271 270 270 270 269 269 269 270 269 269 269 269 269 268 268 268 268 268 268 268 268 268 268 267 267 266 265 265 265 265 265 265 264 263 262 261 259 259 259 259 258 258 258 258 258
274 273 273 272 272 273 272 273 273 273 273 273 273 273 273 273 273 273 273 273 273 272 272 272 271 271 271 270 271 271 271 270 271 272 273 274 274 273 272 271 270 269 270 269 269 269 269 269 269 269 269 269 268 268 268 268 268 268 268 267 267 267 267 267 266 266 266 265 265 264 264 264 264 263 262 260 259 259 259 258 258 258 258 258 258
273 273 272 272 272 272 272 272 272 272 272 272 272 272 272 272 272 272 272 272 272 272 272 271 271 270 270 270 271 271 271 271 272 273 274 274 274 273 272 270 269 269 269 269 268 268 269 269 269 269 269 269 268 268 268 268 267 267 267 267 267 267 267 266 266 266 266 265 265 264 264 264 264 263 262 261 259 259 258 258 258 258 258 257 257
273 272 271 271 271 271 271 272 272 271 271 271 271 271 271 271 271 271 271 271 270 270 270 270 270 270 271 271 271 271 271 272 272 273 274 274 274 273 271 270 269 269 268 268 268 268 268 268 268 268 269 269 269 268 268 268 267 267 267 267 267 267 266 266 266 266 265 265 265 264 264 264 264 263 262 261 259 258 258 258 258 258 258 257 257
272 272 271 271 270 271 271 271 271 271 271 271 271 271 271 271 271 270 270 270 270 270 270 270 271 271 271 271 271 271 272 272 273 273 274 274 274 272 271 269 268 268 268 268 268 268 268 268 268 268 268 268 268 268 268 268 268 267 267 267 267 267 266 266 266 266 265 265 264 264 264 264 264 263 262 260 259 258 258 258 258 258 257 257 257
271 271 270 270 269 270 270 270 270 271 271 270 270 270 270 271 271 270 270 270 270 270 270 270 271 271 271 271 272 272 272 273 274 274 274 274 272 271 270 269 268 268 268 268 268 268 268 267 267 268 268 268 268 268 268 268 268 267 267 267 267 267 267 266 266 265 265 264 264 264 264 264 264 263 261 260 258 258 258 258 258 257 257 257 257
271 270 270 269 269 269 269 269 270 270 270 270 270 270 270 270 270 270 270 270 270 270 270 270 271 271 272 272 272 272 272 273 273 273 273 272 271 270 269 269 268 268 268 268 268 268 268 267 267 267 267 267 267 267 267 267 267 267 267 267 267 267 267 266 266 265 265 264 264 264 264 263 263 262 261 260 259 258 258 257 257 257 257 257 257
Wind_Speed
18 19 21 21 22 22 23 23 23 23 23 23 23 22 22 21 20 19 18 18 19 21 23 23 19 16 18 20 17 14 11 10 9 9 10 11 12 13 12 11 10 10 10 11 11 10 8 8 7 6 5 4 4 4 4 5 6 6 7 7 7 7 7 6 7 18 27 24 25 31 31 33 36 36 38 41 41 38 37 36 37 36 34 34 33
17 17 18 19 19 19 20 20 20 20 21 21 20 20 20 19 18 18 19 21 23 25 24 21 17 18 20 19 17 14 12 11 11 11 12 14 14 13 12 12 13 14 13 13 12 10 9 8 7 6 5 4 5 5 5 6 6 7 7 8 9 8 7 9 9 13 24 29 28 30 31 31 34 36 36 38 41 41 39 40 40 37 35 35 34
16 16 17 17 17 17 17 18 18 19 19 20 19 19 19 19 20 21 23 25 25 24 22 21 20 20 19 16 14 13 12 12 12 11 12 14 15 15 14 14 16 16 15 14 12 10 8 7 7 6 5 5 5 5 6 6 7 7 8 8 9 10 9 11 12 11 20 30 29 27 31 32 32 34 35 34 36 40 42 42 41 39 37 36 37
16 17 17 16 16 17 18 18 18 19 20 20 20 20 22 23 24 25 26 25 22 21 20 19 19 18 17 15 13 12 13 13 13 14 14 15 17 19 18 18 17 16 14 13 11 9 8 7 7 6 5 4 5 6 6 7 8 8 9 10 11 13 13 13 13 12 16 26 30 28 28 30 30 32 35 37 38 40 41 41 41 42 41 40 41
18 18 18 18 19 19 19 20 20 20 22 22 22 23 25 26 25 25 24 23 21 20 19 18 17 16 15 15 14 15 15 16 17 19 19 19 21 21 20 19 17 15 13 12 11 8 7 6 6 6 4 5 6 7 7 8 9 10 11 13 13 14 16 16 15 15 16 22 30 31 28 28 30 31 33 37 42 44 44 44 42 42 44 45 45
19 19 19 20 21 20 21 21 21 22 24 25 26 27 27 26 25 24 23 22 21 20 19 18 17 16 16 16 17 18 19 20 21 22 23 22 22 21 19 18 16 14 13 11 10 8 7 7 6 5 5 6 7 7 8 9 10 12 13 14 15 16 17 17 16 16 18 20 25 30 30 29 31 34 33 34 36 39 43 49 50 49 50 50 47
19 20 20 20 21 21 21 22 21 22 25 26 27 27 27 25 24 24 22 20 19 19 19 19 18 17 19 20 21 22 23 23 23 24 24 22 21 20 18 17 15 14 12 11 10 8 7 7 6 5 6 7 7 8 9 10 11 12 13 15 17 17 18 18 17 17 19 20 21 25 29 29 30 32 35 35 33 32 35 42 47 52 56 54 49
19 20 20 21 21 21 22 23 23 25 26 26 25 25 25 24 23 22 21 20 19 19 20 20 21 21 23 24 24 24 24 25 24 24 23 21 20 19 17 15 14 14 13 11 10 9 7 6 6 5 6 7 7 8 8 9 11 12 13 15 16 17 17 18 18 18 18 19 21 24 27 28 28 31 35 35 32 31 34 36 37 43 51 54 52
20 21 21 22 22 22 23 24 25 26 26 26 25 24 23 22 21 20 20 20 20 21 21 23 25 26 27 26 26 26 25 25 24 23 22 21 19 17 16 15 14 13 13 12 10 9 7 6 6 6 6 7 7 7 7 9 11 12 13 14 15 16 17 18 18 19 20 19 20 23 26 25 25 28 32 33 31 33 37 36 34 37 43 49 53
21 22 22 23 23 22 22 23 23 24 25 25 25 24 23 21 20 19 20 21 22 24 25 27 28 29 30 29 28 27 26 25 23 21 20 18 17 17 16 15 14 13 12 12 10 9 7 6 6 6 6 6 7 8 9 9 10 10 11 12 14 15 16 18 18 18 19 18 18 20 22 24 25 27 28 32 35 36 36 35 33 36 38 38 46
21 21 21 22 23 23 22 22 21 22 24 24 24 24 23 21 20 21 22 24 26 28 29 30 31 31 31 31 29 28 26 24 22 20 18 17 16 16 16 15 14 13 12 11 10 9 8 7 6 6 7 7 9 11 12 10 9 9 10 10 12 13 14 17 18 18 19 19 19 19 20 25 29 29 29 31 34 36 36 35 32 33 33 27 29
21 21 20 21 22 23 23 22 21 22 24 25 25 25 23 22 23 25 27 29 30 31 31 32 32 31 31 31 29 28 26 23 21 20 18 17 15 15 15 14 14 13 12 11 10 9 8 7 7 7 8 8 10 13 14 12 10 10 10 10 11 11 12 14 16 19 20 21 22 22 21 26 30 30 29 30 34 37 37 35 32 31 32 28 24
21 21 21 22 23 23 24 24 24 25 26 27 26 26 25 25 27 29 31 32 33 33 32 32 31 31 30 30 28 27 25 22 21 20 18 17 15 15 14 14 13 12 11 10 9 9 8 7 8 8 8 9 11 14 14 12 11 11 11 12 13 12 12 13 13 15 18 20 23 25 24 26 29 30 30 30 33 35 34 33 33 32 33 32 31
22 21 22 24 25 26 26 27 27 27 27 26 26 26 27 29 31 33 34 34 34 33 32 31 31 30 29 29 28 26 24 22 20 19 18 17 15 14 14 13 12 11 10 10 8 8 8 7 8 8 8 9 12 13 12 12 12 12 13 14 14 14 14 14 13 13 15 18 21 25 26 26 27 29 30 30 30 31 31 32 32 33 35 37 38
23 23 24 26 27 28 28 28 28 27 26 26 27 28 31 33 34 35 35 35 34 33 32 32 31 29 28 28 27 26 24 22 20 19 18 17 15 14 13 12 12 11 10 9 9 8 8 7 8 7 9 10 11 11 11 12 12 13 15 14 14 16 15 14 13 14 16 17 19 23 25 24 25 26 26 27 27 28 29 30 30 30 33 36 39
25 26 27 28 28 29 29 28 28 27 28 29 30 32 33 35 36 36 35 34 33 33 32 31 30 29 28 27 27 26 23 21 20 19 17 16 15 14 14 12 12 11 11 10 9 8 7 7 7 8 10 11 10 10 10 12 13 14 15 15 15 16 14 12 15 16 17 17 17 20 21 21 22 22 22 23 24 26 29 29 29 29 30 30 32
27 28 29 29 30 30 30 29 29 30 31 32 33 34 35 36 37 37 36 35 33 33 32 31 29 29 28 27 26 26 24 21 20 19 17 16 15 15 14 13 12 12 11 10 9 8 7 7 7 9 11 10 9 9 10 12 13 14 15 15 16 15 13 15 19 19 17 17 16 17 18 18 19 20 21 22 22 24 26 26 28 29 27 23 21
28 29 30 31 31 31 31 31 31 32 33 34 35 35 36 37 36 36 36 35 34 33 32 31 29 27 27 26 24 24 24 21 20 18 17 16 15 14 14 13 13 12 11 11 9 8 8 7 7 9 10 9 8 9 10 12 14 14 14 15 15 14 15 19 21 20 19 19 18 17 16 16 18 19 20 21 20 21 22 22 26 28 24 20 19
30 31 31 31 31 31 31 32 33 34 35 35 36 36 36 36 36 35 35 35 34 33 32 31 29 27 25 24 22 22 22 21 19 18 17 15 14 14 13 12 13 12 11 11 10 9 8 8 8 8 8 7 8 9 10 11 13 12 12 13 12 13 16 20 21 21 22 21 20 19 17 16 18 19 21 21 19 19 20 21 24 25 23 23 25
30 30 30 30 31 32 32 33 34 36 37 36 36 36 36 36 35 35 35 34 34 33 31 31 29 26 24 22 21 20 20 19 18 17 16 15 13 13 13 12 12 12 11 11 10 9 8 8 8 7 7 7 8 9 9 10 10 10 11 11 11 13 16 18 19 20 22 22 21 20 18 17 20 22 22 21 20 21 22 21 21 22 22 23 26
28 29 29 30 31 32 33 34 34 36 36 36 36 36 35 36 36 36 35 35 34 33 31 30 29 27 24 23 21 20 19 18 17 16 16 15 13 12 12 12 12 11 11 10 9 8 8 7 7 7 7 8 8 8 8 8 8 9 10 10 10 12 15 17 18 19 21 22 21 20 20 21 24 25 23 23 24 26 26 24 21 20 21 22 25
27 28 29 30 31 32 32 33 34 35 35 36 37 36 35 35 36 36 36 35 34 33 31 30 29 27 25 23 21 21 19 17 16 15 14 14 13 12 12 12 11 10 9 9 8 7 7 6 7 7 7 7 6 6 6 6 7 8 8 9 10 12 14 16 18 20 22 22 21 20 21 24 27 28 28 30 31 31 30 28 24 21 22 22 23
27 28 29 30 31 32 33 33 34 35 35 36 37 37 36 36 36 36 36 35 34 33 31 30 29 28 25 23 21 21 19 18 17 15 14 14 13 12 12 11 11 9 8 8 7 6 6 6 6 6 5 5 4 4 4 4 6 7 7 9 10 11 14 16 19 21 22 22 21 21 22 23 26 29 32 34 35 35 33 31 27 25 24 24 24
27 28 30 31 31 32 32 33 34 35 36 36 37 37 37 36 35 35 35 35 35 33 31 30 29 28 26 24 22 21 20 19 17 16 14 13 13 12 12 11 10 9 7 7 6 5 5 5 5 4 3 2 2 2 2 3 5 6 7 9 10 12 15 18 20 21 22 22 22 21 21 21 23 27 31 34 34 35 35 33 31 29 26 24 25
28 29 30 31 32 32 32 33 33 35 36 37 38 38 38 37 36 35 34 35 34 33 31 30 29 28 27 26 24 22 21 20 18 16 15 14 13 13 12 11 10 9 7 6 6 5 4 4 3 2 0 0 0 0 1 3 5 6 7 9 11 13 16 18 19 21 22 22 21 20 20 21 22 25 29 31 33 34 36 38 38 35 32 29 27
29 30 31 32 33 33 33 33 33 34 35 36 37 38 39 39 37 36 35 34 33 32 31 30 29 28 27 26 25 24 22 20 19 18 16 15 15 14 13 11 10 9 7 6 6 5 4 4 3 3 2 2 2 0 1 3 5 6 8 10 12 14 16 17 18 19 20 20 19 19 20 22 25 28 30 32 33 34 35 38 41 41 38 36 33
30 31 32 33 33 34 35 35 34 34 35 35 35 36 37 39 39 38 37 35 32 30 30 30 29 29 28 27 26 24 23 22 21 20 18 17 16 15 13 12 11 9 8 7 6 5 5 5 5 4 4 3 2 1 1 3 4 6 8 10 11 13 14 15 16 17 18 19 19 19 21 24 28 31 32 33 33 33 33 34 37 39 38 36 35
31 32 33 33 34 34 35 35 36 36 36 36 36 36 37 38 39 39 39 38 36 33 33 33 32 31 30 28 27 25 24 24 23 22 20 18 16 15 14 13 11 10 9 8 7 7 6 6 6 6 5 4 3 1 1 3 4 5 7 9 10 12 13 13 14 16 18 19 19 21 24 28 30 32 33 32 32 32 32 32 33 35 34 31 30
31 31 32 33 33 34 34 35 36 37 37 35 35 35 36 38 38 38 37 37 37 36 36 35 34 33 32 31 29 28 27 26 24 22 20 18 16 15 14 13 11 10 9 8 8 7 8 8 8 7 6 5 3 1 0 2 4 5 7 9 10 11 12 14 15 17 18 18 19 22 25 28 29 31 32 32 31 31 31 31 32 33 31 26 25
29 30 31 32 33 34 34 34 35 36 36 35 33 32 32 33 34 34 33 34 34 33 33 33 33 32 31 30 28 26 24 24 24 22 20 19 17 15 14 13 11 10 10 10 9 9 9 10 9 8 6 5 3 1 0 2 4 5 7 8 9 11 12 14 15 16 17 17 18 20 23 25 27 29 30 31 31 32 31 30 30 30 27 25 24
30 30 31 33 34 34 34 35 35 34 35 35 34 32 30 28 29 29 29 30 30 30 29 29 29 28 28 27 26 23 20 21 23 23 21 20 18 16 15 13 12 11 10 10 10 10 11 11 10 8 6 4 3 1 1 3 4 5 6 7 9 10 11 13 14 15 16 16 17 19 21 23 24 26 27 28 29 31 32 30 29 28 25 22 22
31 32 33 33 33 34 34 35 35 35 34 34 33 32 30 27 24 23 24 25 26 26 26 26 26 25 25 26 26 24 22 23 24 22 21 20 18 17 15 13 12 12 12 12 12 12 12 12 10 8 6 4 3 1 1 3 4 5 6 7 8 9 10 12 13 14 15 15 16 18 20 21 22 23 25 26 27 29 31 30 28 27 25 21 20
33 33 34 34 34 34 35 35 35 36 36 35 34 33 32 30 28 25 21 20 20 21 23 24 24 25 26 27 26 24 23 24 24 22 21 20 18 17 16 15 14 14 14 14 13 13 13 12 10 8 6 5 3 2 2 2 3 5 6 7 8 8 9 11 12 13 14 14 15 17 18 19 21 23 24 25 25 26 27 28 28 26 23 21 20
33 33 34 35 36 36 36 37 36 36 35 35 35 34 34 33 32 30 26 23 20 20 20 21 23 25 27 27 26 25 24 24 23 22 21 20 19 18 17 16 16 16 17 16 15 15 15 13 10 9 7 5 4 3 3 3 4 4 5 6 7 8 9 11 12 13 14 14 15 16 17 18 20 22 23 24 24 24 25 26 26 25 22 21 21
32 32 32 34 36 36 36 37 36 35 35 35 35 35 34 32 31 32 33 31 29 27 25 24 25 26 27 27 26 25 24 23 22 22 21 21 20 19 19 19 19 19 18 17 16 16 15 13 11 9 8 6 5 5 4 4 4 5 6 7 8 8 9 11 12 13 14 15 15 16 16 17 19 20 21 23 23 23 25 25 25 24 22 21 21
31 30 30 32 34 35 34 34 35 35 36 36 35 34 34 33 33 33 33 32 30 29 28 27 26 25 24 26 26 24 22 22 21 21 21 21 21 22 22 22 21 19 18 18 17 16 15 13 11 10 8 7 6 6 6 5 5 6 7 7 9 9 10 11 12 13 14 15 15 16 16 17 19 19 20 21 21 22 23 24 24 23 21 21 21
32 32 32 33 34 34 33 33 33 33 32 32 32 32 32 32 32 31 31 30 30 29 28 28 28 26 25 26 25 23 21 20 19 19 19 20 21 23 24 22 20 19 19 18 18 17 15 14 12 10 9 8 8 7 7 7 7 7 8 9 9 10 11 11 12 13 14 15 16 16 16 17 18 19 19 19 21 22 22 23 24 22 21 20 20
32 33 33 33 33 33 33 32 32 31 29 30 31 31 32 31 30 30 31 31 31 30 29 30 31 31 30 29 27 24 22 20 20 20 20 21 23 25 26 23 21 21 20 18 18 17 16 14 12 11 10 10 9 9 8 8 8 8 9 10 10 11 12 12 12 13 14 16 16 16 17 17 18 18 18 18 20 22 22 23 24 23 21 21 20
32 33 32 31 31 32 33 31 31 30 30 30 31 31 31 31 31 32 32 31 30 30 30 30 31 31 30 28 28 27 26 25 26 26 26 26 27 28 26 24 23 23 21 19 19 18 16 14 13 12 11 11 10 10 9 9 9 9 10 11 12 13 13 13 13 14 14 16 17 17 17 18 18 18 18 18 19 20 21 22 23 22 21 21 20
33 33 32 31 30 31 31 30 30 31 32 32 32 32 32 32 33 34 33 31 30 31 31 31 33 33 32 31 32 33 32 31 31 31 31 31 31 30 27 25 25 24 22 21 20 18 16 15 14 13 13 12 12 11 11 11 11 11 12 13 13 14 14 14 14 15 15 16 17 18 18 19 19 19 19 18 18 19 20 22 23 22 20 20 20
32 32 31 31 30 30 30 30 31 33 33 32 31 31 33 34 34 33 32 31 31 32 32 34 35 36 36 36 36 36 36 35 33 34 34 34 32 29 27 26 26 25 23 22 21 18 17 16 15 14 13 13 13 12 12 12 12 12 13 13 14 14 14 14 14 14 15 16 17 18 19 19 20 19 19 19 19 19 20 22 22 21 20 19 19
30 30 30 30 30 29 30 31 31 31 31 30 31 32 32 32 31 31 32 33 33 33 33 34 35 35 36 36 36 37 37 36 34 35 35 34 32 29 27 26 26 25 24 23 21 19 18 17 16 15 14 14 13 13 14 14 14 13 13 14 14 14 14 14 14 14 15 15 17 18 18 19 20 19 19 19 19 20 21 21 21 21 19 19 19
29 29 29 29 30 30 30 29 28 29 31 32 33 33 32 30 30 32 33 33 34 34 35 35 35 35 35 35 36 37 38 37 37 36 34 33 32 30 28 27 26 25 24 23 21 20 19 18 17 16 15 14 14 14 14 14 14 14 14 14 14 15 14 14 14 14 15 16 17 17 18 19 20 20 20 19 19 19 20 21 21 21 20 19 20
27 27 27 28 28 28 29 28 27 29 30 31 31 31 32 32 33 33 33 34 35 35 35 35 34 35 35 34 35 38 40 40 39 38 36 33 31 30 29 28 27 26 25 24 23 21 20 19 18 17 16 15 15 15 15 15 15 14 14 14 15 15 14 14 14 15 16 16 17 17 18 18 19 20 21 19 18 18 20 21 21 22 21 20 20
25 26 26 26 26 27 28 28 28 28 28 28 29 30 31 32 33 33 34 35 35 34 34 32 31 33 35 35 36 39 40 39 39 39 37 34 32 31 30 29 28 27 26 25 24 22 21 20 19 18 17 16 15 15 16 15 15 15 15 15 15 15 14 14 15 15 16 17 18 18 18 18 19 20 21 19 18 18 20 21 21 21 21 20 20
23 25 25 25 26 26 26 27 27 28 28 29 31 32 32 33 33 33 33 33 33 32 32 32 31 32 34 34 36 37 37 37 39 39 38 36 34 33 31 30 29 28 27 26 24 23 22 21 20 19 18 17 16 16 16 16 16 16 15 15 15 15 14 14 15 16 17 17 18 18 18 19 20 20 20 19 19 19 20 21 21 20 20 21 21
22 24 24 25 25 25 25 25 26 28 28 28 29 30 31 32 32 32 32 32 32 32 32 32 33 33 33 33 35 37 38 38 39 39 38 37 35 33 32 31 30 29 28 26 25 24 23 22 21 20 19 18 18 17 17 16 16 16 16 16 15 15 15 15 16 17 17 17 18 18 19 19 20 20 20 20 20 20 20 21 21 21 21 21 20
22 23 23 24 24 24 23 23 24 26 28 28 27 27 27 27 27 28 28 28 28 29 29 29 31 32 33 34 36 38 39 39 39 39 38 36 34 32 32 32 30 29 28 26 25 25 24 23 22 21 20 20 19 18 18 17 17 17 17 16 16 15 16 16 16 17 17 17 18 18 18 19 20 20 20 20 20 20 20 21 23 23 22 21 19
21 22 23 24 24 24 23 23 23 25 26 26 27 28 28 27 27 28 27 27 28 30 30 31 32 33 34 35 36 37 38 39 40 39 38 35 33 32 32 31 29 29 28 27 26 26 25 23 22 22 21 21 20 19 19 18 18 17 17 17 17 16 17 17 17 18 18 18 18 18 19 20 20 20 20 20 20 21 21 22 23 23 22 21 20
20 21 23 24 25 25 24 23 24 25 25 25 26 27 27 27 28 29 29 30 32 33 33 34 35 36 37 37 38 39 41 41 41 39 38 35 33 32 31 30 30 29 28 27 27 26 25 24 23 23 23 22 21 21 20 19 19 18 18 18 18 18 18 18 19 19 19 19 19 19 19 20 20 21 21 21 21 21 22 23 23 23 22 22 22
19 21 22 23 24 24 24 23 24 24 25 25 26 26 26 27 29 29 29 31 33 33 34 35 36 37 38 39 39 39 40 40 39 38 36 34 32 31 31 31 30 29 28 28 27 26 26 25 24 24 24 24 23 22 22 21 20 19 19 19 19 19 19 19 20 20 20 19 20 20 20 20 21 21 22 22 22 23 24 24 23 22 22 22 22
Wind_Direction
206 209 210 211 214 215 215 217 218 219 220 221 222 222 222 222 220 217 212 206 201 194 183 174 170 175 178 175 171 169 174 182 188 194 191 178 172 174 178 182 181 170 154 141 137 139 140 133 124 112 99 84 69 56 38 32 28 21 20 16 17 20 352 321 290 297 308 319 324 325 330 332 333 336 337 336 337 338 337 335 335 336 337 337 337
194 199 200 201 205 207 208 209 210 212 213 213 213 214 213 210 206 202 196 190 184 179 177 177 178 180 177 176 176 179 188 195 196 196 186 172 167 169 170 163 155 149 144 139 135 134 133 125 114 100 86 69 58 53 40 32 29 21 20 18 9 10 2 338 320 306 309 316 322 326 330 333 333 336 337 336 336 336 335 334 336 337 336 335 334
189 190 191 192 194 196 198 197 198 203 204 202 202 202 201 196 193 191 185 179 175 174 176 175 174 174 175 178 181 186 191 189 184 176 169 166 163 159 156 150 145 142 140 136 132 131 129 119 108 96 82 71 62 54 43 28 23 19 12 10 3 358 359 347 335 321 311 313 319 326 330 332 334 334 336 335 334 334 333 335 337 335 334 334 333
181 180 178 180 181 184 186 186 189 192 191 190 190 190 187 182 180 179 174 170 169 169 169 169 172 176 181 186 187 188 185 176 166 159 158 160 156 150 147 145 143 140 137 133 130 129 124 112 103 93 80 74 61 46 39 24 14 14 5 2 3 354 349 349 342 332 317 312 316 323 329 331 332 334 336 336 335 335 335 335 336 334 333 334 333
173 171 172 173 173 176 177 178 181 182 180 180 179 178 174 170 170 171 168 167 167 168 171 175 179 181 183 184 182 177 171 164 157 152 151 151 148 144 143 142 140 138 135 131 127 122 113 103 96 90 76 59 48 33 25 19 10 9 6 359 357 352 348 351 348 338 326 316 316 322 329 332 332 334 338 338 337 337 337 336 335 333 332 332 333
170 169 170 171 169 171 172 172 175 177 175 173 171 170 168 165 166 168 168 167 167 169 173 175 178 179 176 174 172 165 158 155 151 148 147 146 144 143 142 141 139 136 131 126 120 112 104 98 86 74 58 40 37 28 15 13 9 6 4 358 354 354 353 354 350 342 333 323 320 323 328 334 334 334 337 340 338 337 337 336 334 333 332 330 330
170 169 171 170 168 169 171 172 174 176 172 169 167 166 166 167 168 168 170 172 173 175 175 173 174 174 168 163 160 155 151 149 148 146 145 146 145 144 142 140 136 132 126 120 116 108 100 93 79 61 50 37 29 23 12 9 10 8 4 1 359 358 356 351 348 344 336 330 327 326 327 331 333 332 334 338 338 337 338 334 329 329 330 328 328
172 171 170 171 169 169 172 173 174 175 171 168 168 166 165 167 168 168 172 176 177 178 176 171 167 164 160 157 153 152 150 148 148 147 146 146 145 142 141 138 134 129 124 119 113 107 99 89 77 58 46 38 26 21 16 10 11 12 8 6 3 359 354 350 345 342 338 332 330 328 326 327 331 332 333 337 338 335 335 330 321 320 324 325 326
173 172 171 172 171 168 171 172 171 172 170 168 169 169 167 167 168 170 172 175 175 174 174 170 163 157 155 153 151 151 150 148 149 149 148 147 145 142 139 135 131 127 123 119 113 109 102 90 80 64 45 40 31 24 25 22 20 18 12 7 2 356 351 348 344 340 337 333 329 328 325 324 330 333 332 333 332 327 328 325 318 317 322 322 322
175 174 173 174 173 170 170 170 169 170 169 168 168 169 169 169 171 174 174 174 172 169 167 165 161 157 153 151 151 150 149 148 148 148 148 147 146 143 138 133 128 125 123 120 116 111 104 91 79 63 45 40 37 34 34 32 29 22 12 4 358 353 348 344 341 337 333 329 327 327 323 319 325 330 327 325 325 324 324 324 320 321 324 322 321
185 182 180 178 178 178 176 174 173 173 172 171 170 170 171 172 174 175 172 169 166 165 163 161 158 156 153 151 151 149 147 147 147 147 147 146 145 141 136 132 128 126 124 121 118 112 103 90 71 57 48 42 40 40 39 34 27 16 8 2 355 351 347 341 336 333 330 324 321 323 319 315 320 325 322 322 323 322 322 323 322 323 323 321 319
190 189 187 184 182 181 181 180 181 181 178 176 174 173 174 174 173 171 167 164 162 161 160 158 155 154 153 151 150 148 146 146 148 148 146 143 142 139 135 133 130 128 125 120 115 108 96 82 66 55 51 48 44 42 37 29 19 8 1 359 355 352 349 341 334 330 327 322 317 317 316 314 315 319 321 323 323 322 322 323 324 322 319 317 314
186 188 189 189 185 181 181 182 181 180 178 176 174 173 174 173 170 167 164 161 160 159 158 157 155 154 154 152 149 147 146 148 150 149 145 142 141 138 135 133 130 127 122 117 112 104 94 79 69 60 51 48 45 39 31 19 10 4 1 1 0 356 348 342 338 332 326 321 315 313 314 315 314 316 320 323 322 321 321 322 324 325 321 318 313
182 184 184 184 182 180 179 178 176 175 174 174 175 174 173 170 167 165 163 161 160 159 158 157 155 154 154 153 149 147 148 151 152 149 145 143 141 139 136 132 129 126 119 114 107 100 93 80 72 65 54 49 40 32 23 11 5 3 4 5 0 352 348 349 349 339 326 319 313 309 310 313 313 315 319 322 323 322 323 324 326 325 320 315 312
183 184 183 181 180 179 178 177 177 177 177 178 177 174 171 167 164 163 162 162 162 161 159 158 156 155 155 154 152 149 150 153 153 150 146 144 142 140 137 133 130 125 119 113 105 98 91 82 77 65 56 51 36 24 16 5 3 5 3 1 352 349 353 355 347 334 322 315 308 306 308 312 315 318 321 326 327 325 324 323 323 322 317 314 314
186 186 186 185 183 183 183 182 182 181 180 178 175 172 169 166 164 163 162 162 161 161 160 159 158 157 156 157 155 151 151 154 153 150 147 146 145 143 139 135 132 126 120 114 107 101 92 84 80 64 54 49 33 23 16 3 1 3 358 353 349 351 355 348 340 337 331 324 315 310 311 316 320 323 326 330 330 328 327 325 326 327 322 316 315
191 189 189 190 189 188 187 186 184 180 178 175 172 171 169 166 165 165 163 161 161 161 160 159 159 160 159 159 159 154 152 154 154 151 150 149 149 147 143 137 133 127 122 116 109 104 96 84 77 64 55 48 32 24 17 3 2 1 353 352 354 353 348 339 341 346 344 338 331 324 321 324 328 331 334 335 334 333 333 331 332 331 325 318 316
195 193 193 193 191 191 189 188 185 180 177 175 172 171 170 167 167 167 166 164 162 162 162 160 160 161 161 161 162 157 153 153 155 154 152 152 153 150 145 140 134 129 123 118 112 107 100 87 73 62 55 49 34 25 16 4 1 360 356 357 356 350 342 339 342 348 349 349 351 346 339 336 336 338 338 336 336 339 339 335 332 330 325 321 319
199 197 196 194 192 192 190 189 186 181 178 176 174 173 171 168 167 167 167 166 163 162 163 162 160 160 161 162 162 159 155 153 155 156 153 154 154 150 146 142 135 130 126 123 118 110 101 89 74 62 54 46 33 25 17 5 359 359 1 1 357 347 339 337 342 349 352 356 360 356 350 345 341 340 342 341 341 343 342 338 336 333 329 326 323
200 198 197 194 191 191 190 188 186 182 179 177 175 173 171 169 167 167 167 166 164 163 164 163 160 159 161 162 162 160 157 154 156 156 154 154 155 150 145 141 135 132 130 127 120 110 102 90 76 63 51 43 32 23 18 3 353 359 6 4 355 341 332 334 344 352 355 359 2 358 352 346 343 346 349 348 345 345 345 344 342 337 332 326 322
199 196 194 192 190 189 188 187 185 182 180 178 175 173 172 171 170 170 168 167 165 163 162 162 160 160 162 165 163 160 159 157 157 156 155 155 154 149 144 138 135 135 133 129 122 111 102 87 74 63 48 39 29 20 16 360 348 357 6 359 345 333 330 337 348 355 358 1 1 357 351 348 348 350 350 346 345 348 350 348 344 338 332 326 321
196 193 191 190 188 187 186 186 184 182 180 178 175 173 172 173 173 172 170 168 165 163 163 163 163 161 163 166 165 162 161 161 158 157 158 156 153 149 145 139 136 136 134 131 122 109 97 78 65 56 43 34 26 15 7 353 346 357 360 349 340 338 340 346 352 358 2 2 360 356 353 352 351 348 346 345 348 351 351 347 342 337 331 327 322
192 189 188 188 187 187 186 185 184 183 181 179 177 174 173 174 174 173 171 169 165 163 164 166 165 163 163 165 166 165 164 163 161 160 159 157 154 152 148 143 139 139 135 128 117 102 88 71 59 53 40 29 22 8 356 350 355 4 1 354 353 351 351 355 359 1 2 2 -0 358 356 353 349 344 343 347 350 350 348 346 342 338 335 332 329
188 187 187 187 186 186 186 185 186 184 182 180 178 175 175 174 174 173 172 170 168 166 167 168 168 165 164 166 168 169 170 168 166 164 161 160 158 154 151 148 145 143 138 128 115 102 90 73 62 57 40 22 20 8 354 3 13 13 7 3 2 1 0 3 5 4 3 2 360 357 354 350 344 341 343 347 350 349 346 345 343 342 339 337 336
187 187 187 187 186 186 185 185 186 185 183 182 181 178 176 175 173 173 174 173 172 170 170 172 172 170 169 170 171 174 175 173 171 169 165 163 162 159 157 154 150 147 145 135 121 111 104 92 87 100 120 265 167 55 11 18 19 13 10 8 6 6 7 8 7 5 3 1 356 351 348 343 339 340 345 348 351 351 349 347 347 348 346 342 340
187 187 187 187 186 185 185 184 185 185 184 185 185 183 181 178 177 176 177 177 177 175 174 175 175 175 175 174 175 176 178 177 176 176 173 170 169 166 163 160 157 156 153 145 135 130 130 131 146 174 195 211 206 198 8 19 18 11 11 11 9 10 12 11 8 5 1 358 354 347 342 339 341 346 351 353 354 353 351 348 347 348 347 343 340
187 187 187 186 186 186 186 184 184 185 185 186 186 185 184 183 181 180 180 180 179 178 178 177 178 179 179 179 179 180 181 182 181 181 179 177 175 172 168 166 166 163 160 157 151 150 154 162 176 194 204 210 213 225 5 17 17 12 11 12 11 13 16 14 9 4 0 357 353 346 341 343 348 352 354 354 353 351 350 348 345 344 344 341 337
189 188 187 186 186 187 187 186 185 185 186 187 188 187 186 186 186 186 187 187 186 185 185 185 187 188 187 184 183 182 184 188 188 186 183 181 179 177 173 172 172 169 168 170 166 164 171 180 190 201 206 210 215 227 12 16 17 14 13 16 18 16 15 12 7 3 1 359 354 348 347 349 352 353 352 349 348 348 349 347 344 341 340 339 334
190 188 187 187 187 188 188 189 188 186 187 188 190 191 191 191 191 192 194 194 195 195 195 195 197 197 196 194 192 189 191 194 192 189 186 182 182 182 179 177 177 175 175 178 176 177 186 195 202 206 207 208 213 215 353 21 26 23 17 17 18 16 12 9 7 3 1 359 355 351 349 350 351 352 349 345 344 346 347 345 343 341 338 334 330
187 188 188 188 188 189 189 189 189 189 188 187 189 191 193 195 196 196 197 199 200 201 202 203 204 203 202 202 201 201 204 201 193 189 187 184 184 185 182 180 180 180 183 185 185 191 201 206 209 210 211 214 218 219 1 28 30 27 21 16 14 14 12 9 6 2 358 358 356 351 348 349 349 348 346 342 340 342 344 343 342 341 337 329 327
187 188 190 190 190 190 189 189 190 190 190 189 189 189 190 195 200 202 203 203 204 205 207 209 210 210 209 208 205 205 205 200 194 192 189 187 187 187 184 182 183 187 193 194 194 203 212 215 215 214 215 220 222 226 10 18 17 17 19 17 12 11 11 8 5 360 356 357 356 350 347 347 346 344 341 339 337 338 341 342 342 340 336 327 324
192 191 192 193 192 191 191 191 191 191 191 191 191 189 187 188 193 201 207 208 208 210 211 212 213 213 213 210 207 204 201 197 195 195 192 189 190 188 187 187 189 194 200 203 205 212 217 220 222 220 220 227 235 252 340 2 3 1 5 10 10 8 6 5 3 358 357 357 351 345 345 345 342 339 339 339 337 336 338 339 339 337 332 326 324
198 196 195 194 193 193 193 193 193 193 192 191 191 190 189 186 185 187 194 202 210 213 214 214 213 210 208 207 207 208 205 200 196 195 192 191 192 191 191 192 195 201 207 211 214 218 220 222 226 226 226 231 240 264 308 330 344 348 348 353 359 1 1 2 359 355 356 356 346 340 341 341 339 338 339 339 338 337 336 336 336 335 332 326 324
204 202 199 197 195 195 196 196 196 195 194 193 193 193 193 192 188 182 179 183 192 202 208 211 211 208 205 204 205 207 205 200 196 195 194 192 193 195 197 197 198 205 212 216 219 222 223 224 226 227 229 234 241 256 281 303 318 329 333 336 344 351 355 356 354 352 353 351 343 339 339 338 337 338 338 338 338 337 335 335 335 334 330 325 323
207 206 204 202 199 198 199 199 198 197 197 197 196 196 195 194 191 188 186 186 188 191 196 201 206 207 206 205 205 205 203 199 196 196 196 194 192 194 198 200 203 208 213 216 219 223 226 228 228 229 231 238 248 259 271 287 301 311 318 324 332 342 349 349 348 348 348 345 341 339 337 335 335 336 336 336 337 336 335 334 334 332 328 323 322
207 208 208 207 205 204 203 202 201 200 200 200 200 199 197 195 195 195 194 193 192 193 194 196 199 202 206 207 206 202 199 197 196 197 199 196 193 196 203 207 210 213 216 217 219 222 226 229 230 232 236 242 251 261 272 280 290 300 308 316 325 335 341 344 344 344 343 340 338 338 336 332 333 334 335 334 335 335 334 334 333 331 327 324 324
210 210 211 211 210 208 208 207 205 205 205 203 202 200 199 199 198 197 196 197 198 197 196 195 194 195 201 207 205 198 195 196 196 198 201 198 197 205 215 218 219 221 222 221 221 224 227 230 232 235 240 246 252 259 268 277 287 297 305 312 321 328 333 338 339 338 336 335 335 335 332 330 330 332 334 333 333 334 335 334 333 330 326 326 328
214 214 214 214 213 210 210 211 209 208 208 207 204 203 202 201 200 199 200 202 202 200 198 197 196 196 199 202 199 193 191 193 193 196 200 200 202 211 219 222 224 227 228 226 226 228 230 232 236 240 243 247 253 259 266 276 285 293 302 309 315 320 324 329 331 330 330 329 330 330 328 327 330 332 333 332 331 332 332 332 332 332 329 329 330
218 217 217 217 216 214 213 213 211 210 209 208 207 206 204 202 202 203 204 205 204 203 200 199 200 201 201 199 194 189 190 194 196 197 200 202 207 214 220 222 225 228 228 227 228 230 232 233 238 243 247 251 256 262 269 277 285 293 300 305 310 315 318 322 324 326 326 324 323 323 323 325 329 332 332 330 330 329 328 328 331 332 330 327 326
221 219 219 219 218 217 216 215 214 212 211 210 209 207 206 206 206 206 206 206 205 205 204 203 205 207 207 205 200 196 196 199 202 202 203 207 211 216 218 221 225 228 228 227 228 230 232 234 237 243 249 254 260 267 273 279 284 291 296 301 305 310 315 319 321 323 322 318 316 317 319 322 326 329 328 328 326 324 323 324 328 330 329 325 323
224 222 221 220 220 219 218 217 216 215 214 213 213 211 210 211 210 209 209 209 209 209 209 210 212 213 213 212 208 204 203 206 207 208 210 213 215 217 218 221 225 227 227 228 229 230 231 232 236 241 247 253 260 267 273 279 284 288 293 298 301 306 312 317 319 319 318 314 311 312 314 318 322 324 324 323 320 319 320 323 326 329 329 326 325
226 224 223 222 221 220 219 219 219 218 216 216 217 216 216 215 214 213 213 213 213 213 213 215 217 218 217 215 212 208 209 211 213 214 216 218 219 219 220 222 225 227 227 228 230 230 230 231 234 238 243 249 258 265 270 275 281 284 289 295 299 303 310 315 317 317 314 309 308 310 312 315 316 317 318 317 316 316 318 322 326 328 328 326 326
230 228 226 224 223 222 222 222 221 219 217 218 219 220 219 219 219 219 218 218 218 217 217 217 218 218 218 217 212 209 211 215 217 219 221 222 223 223 223 223 225 226 226 228 229 228 229 231 233 235 239 243 250 258 264 269 275 280 285 291 296 300 307 313 315 313 309 306 308 310 312 312 313 313 313 314 313 312 314 319 324 326 325 324 326
233 230 229 228 227 226 226 225 224 224 223 222 222 222 221 221 221 221 221 221 222 221 221 220 218 216 215 213 210 209 212 215 217 219 222 224 226 227 227 226 225 224 225 227 229 228 229 232 232 233 237 240 244 252 258 263 269 275 280 286 290 296 304 310 310 307 305 305 308 310 310 310 310 308 308 310 310 308 310 315 320 322 322 322 323
236 233 231 230 230 230 229 228 227 227 227 226 226 225 224 223 223 223 223 223 224 224 223 222 220 217 214 211 209 210 212 214 217 219 222 224 227 229 229 228 226 225 226 228 229 229 230 232 233 233 235 237 240 246 253 259 264 270 275 280 285 292 299 303 303 302 302 303 305 307 307 308 308 306 306 307 305 303 304 310 315 318 318 317 318
240 237 234 232 232 233 234 233 231 230 229 228 228 227 226 226 226 226 226 226 225 225 224 223 221 219 216 213 212 212 213 215 217 220 222 225 228 230 230 228 226 227 228 229 230 231 232 233 233 234 235 236 239 243 248 254 260 265 270 275 281 288 293 296 296 298 300 301 303 303 303 304 306 305 302 300 298 297 301 306 309 311 312 312 314
245 241 238 236 236 237 237 237 235 234 233 232 232 231 230 229 229 228 228 228 228 227 226 224 222 220 218 217 217 216 216 217 219 222 224 226 228 229 229 227 226 227 229 230 231 234 235 235 235 236 236 236 239 242 246 252 256 261 267 272 277 283 289 291 292 296 298 298 298 299 299 301 302 301 299 296 295 297 300 302 303 305 308 310 311
249 245 242 240 239 240 241 240 238 236 234 234 235 235 235 235 234 232 232 231 230 228 228 227 226 224 222 221 221 220 219 220 223 225 226 229 230 229 228 227 226 228 230 232 234 236 237 238 238 239 238 238 239 241 245 250 255 259 265 270 274 280 285 288 291 294 296 295 294 295 296 297 297 296 295 294 294 294 295 296 299 302 305 307 307
253 249 246 243 241 241 242 242 241 240 238 236 236 237 236 236 235 234 233 233 232 231 231 231 230 228 225 223 223 222 221 222 224 226 228 230 231 229 228 227 227 229 232 234 236 238 240 241 242 242 242 242 242 243 245 249 254 259 264 269 274 280 284 288 292 293 293 292 292 292 291 292 294 294 293 292 292 292 292 293 296 299 301 302 304
258 254 250 247 244 243 244 245 245 244 243 240 239 239 237 236 235 234 232 231 231 231 231 230 230 228 227 226 225 224 223 223 224 226 228 230 230 230 229 228 229 231 234 236 238 240 242 243 244 246 246 246 246 247 248 250 253 258 263 267 273 279 283 287 291 292 292 291 290 289 289 290 292 293 292 292 291 291 290 291 294 296 297 298 301
262 258 255 252 249 247 247 248 248 247 245 242 241 241 240 239 239 237 234 233 233 232 232 232 233 232 231 229 226 224 224 224 225 226 228 229 230 230 230 230 231 233 236 238 239 241 243 244 246 248 249 250 250 251 253 254 256 259 263 267 272 278 283 286 289 290 289 288 288 288 289 290 290 290 290 289 288 287 288 289 291 292 293 295 297